MSR81 HESN-HECA

Flight info

Callsign MSR81
Flight time 1h 9m
Altitude 38000
Route ASN V738 AST W8 CVO
Aircraft A20N/M-SDE2E3FGHIRWXY/LB1

Departure

Time 2026-05-07 17:31
Airport Aswan International Airport (HESN)

Arrival

Time 2026-05-07 18:41
Airport Cairo International Airport (HECA)
Time Latitude Longitude Altitude Speed Heading
2026-05-07 16:59 23.96762 32.82352 656 ft 0 kts 84°
2026-05-07 17:20 23.96762 32.82346 656 ft 2 kts 83°
2026-05-07 17:20 23.96759 32.82333 661 ft 2 kts 14°
2026-05-07 17:20 23.96748 32.82333 661 ft 2 kts 350°
2026-05-07 17:21 23.96738 32.82335 657 ft 2 kts 351°
2026-05-07 17:21 23.96729 32.82336 657 ft 0 kts 353°
2026-05-07 17:23 23.96730 32.82336 655 ft 0 kts 353°
2026-05-07 17:24 23.96744 32.82334 659 ft 3 kts 353°
2026-05-07 17:24 23.96771 32.82330 657 ft 5 kts 353°
2026-05-07 17:24 23.96814 32.82315 655 ft 8 kts 321°
2026-05-07 17:24 23.96823 32.82251 655 ft 10 kts 264°
2026-05-07 17:25 23.96812 32.82166 656 ft 13 kts 260°
2026-05-07 17:25 23.96764 32.82089 654 ft 13 kts 183°
2026-05-07 17:25 23.96682 32.82099 656 ft 11 kts 170°
2026-05-07 17:25 23.96608 32.82112 656 ft 10 kts 171°
2026-05-07 17:26 23.96546 32.82123 654 ft 8 kts 171°
2026-05-07 17:26 23.96494 32.82132 657 ft 7 kts 171°
2026-05-07 17:26 23.96451 32.82139 656 ft 6 kts 171°
2026-05-07 17:26 23.96417 32.82145 662 ft 4 kts 171°
2026-05-07 17:27 23.96365 32.82154 655 ft 11 kts 171°
2026-05-07 17:27 23.96301 32.82166 656 ft 16 kts 170°
2026-05-07 17:27 23.96185 32.82186 655 ft 16 kts 171°
2026-05-07 17:27 23.96076 32.82204 656 ft 16 kts 171°
2026-05-07 17:28 23.95970 32.82223 656 ft 15 kts 171°
2026-05-07 17:28 23.95867 32.82242 656 ft 14 kts 170°
2026-05-07 17:28 23.95771 32.82259 658 ft 13 kts 172°
2026-05-07 17:28 23.95684 32.82274 656 ft 12 kts 171°
2026-05-07 17:29 23.95604 32.82288 654 ft 11 kts 171°
2026-05-07 17:29 23.95529 32.82301 655 ft 10 kts 171°
2026-05-07 17:29 23.95461 32.82313 654 ft 9 kts 171°
2026-05-07 17:29 23.95400 32.82323 656 ft 8 kts 171°
2026-05-07 17:30 23.95325 32.82337 655 ft 14 kts 171°
2026-05-07 17:30 23.95237 32.82315 653 ft 13 kts 234°
2026-05-07 17:30 23.95234 32.82221 651 ft 12 kts 309°
2026-05-07 17:30 23.95257 32.82207 649 ft 0 kts 344°
2026-05-07 17:31 23.95277 32.82201 649 ft 17 kts 344°
2026-05-07 17:31 23.95707 32.82122 651 ft 107 kts 351°
2026-05-07 17:31 23.96688 32.81953 690 ft 171 kts 351°
2026-05-07 17:31 23.97951 32.81734 1329 ft 193 kts 351°
2026-05-07 17:32 23.99356 32.81381 1891 ft 225 kts 342°
2026-05-07 17:32 24.00886 32.80648 2466 ft 252 kts 332°
2026-05-07 17:32 24.02443 32.79728 3406 ft 254 kts 334°
2026-05-07 17:32 24.04044 32.78889 4349 ft 257 kts 335°
2026-05-07 17:33 24.05674 32.78044 5218 ft 262 kts 334°
2026-05-07 17:33 24.07330 32.77161 6042 ft 268 kts 332°
2026-05-07 17:33 24.09011 32.76232 6807 ft 273 kts 331°
2026-05-07 17:33 24.10709 32.75265 7588 ft 278 kts 330°
2026-05-07 17:34 24.12432 32.74266 8386 ft 282 kts 330°
2026-05-07 17:34 24.14177 32.73246 9187 ft 286 kts 330°
2026-05-07 17:34 24.15940 32.72207 9964 ft 290 kts 329°
2026-05-07 17:34 24.17780 32.71118 10458 ft 305 kts 329°
2026-05-07 17:35 24.19701 32.69982 10842 ft 322 kts 330°
2026-05-07 17:35 24.21725 32.68787 11213 ft 338 kts 330°
2026-05-07 17:35 24.23822 32.67550 11811 ft 345 kts 330°
2026-05-07 17:35 24.25944 32.66298 12546 ft 348 kts 330°
2026-05-07 17:36 24.28083 32.65036 13288 ft 351 kts 329°
2026-05-07 17:36 24.30240 32.63764 13985 ft 354 kts 329°
2026-05-07 17:36 24.32413 32.62483 14628 ft 356 kts 329°
2026-05-07 17:36 24.34615 32.61185 15299 ft 359 kts 329°
2026-05-07 17:37 24.36820 32.59884 15948 ft 361 kts 329°
2026-05-07 17:37 24.39040 32.58569 16587 ft 364 kts 329°
2026-05-07 17:37 24.41273 32.57243 17238 ft 366 kts 329°
2026-05-07 17:37 24.43521 32.55906 17900 ft 369 kts 329°
2026-05-07 17:38 24.45789 32.54561 18510 ft 371 kts 329°
2026-05-07 17:38 24.48071 32.53208 19106 ft 373 kts 329°
2026-05-07 17:38 24.50325 32.51873 19708 ft 374 kts 329°
2026-05-07 17:38 24.52624 32.50510 20338 ft 375 kts 329°
2026-05-07 17:39 24.54929 32.49145 20959 ft 377 kts 329°
2026-05-07 17:39 24.57244 32.47777 21570 ft 378 kts 329°
2026-05-07 17:39 24.59593 32.46387 22171 ft 379 kts 329°
2026-05-07 17:39 24.61917 32.45009 22764 ft 381 kts 329°
2026-05-07 17:40 24.64250 32.43621 23327 ft 382 kts 329°
2026-05-07 17:40 24.66590 32.42228 23806 ft 383 kts 329°
2026-05-07 17:40 24.68941 32.40828 24238 ft 385 kts 329°
2026-05-07 17:40 24.71313 32.39428 24661 ft 387 kts 329°
2026-05-07 17:41 24.73704 32.38043 25081 ft 389 kts 330°
2026-05-07 17:41 24.76108 32.36668 25488 ft 391 kts 330°
2026-05-07 17:41 24.78533 32.35285 25893 ft 393 kts 330°
2026-05-07 17:41 24.80959 32.33900 26302 ft 394 kts 330°
2026-05-07 17:42 24.83401 32.32501 26698 ft 395 kts 330°
2026-05-07 17:42 24.85848 32.31094 27088 ft 397 kts 330°
2026-05-07 17:42 24.88299 32.29682 27461 ft 398 kts 330°
2026-05-07 17:42 24.90759 32.28264 27842 ft 400 kts 330°
2026-05-07 17:43 24.93225 32.26841 28210 ft 401 kts 330°
2026-05-07 17:43 24.95704 32.25410 28572 ft 402 kts 330°
2026-05-07 17:43 24.98189 32.23974 28924 ft 404 kts 330°
2026-05-07 17:43 25.00681 32.22536 29276 ft 405 kts 330°
2026-05-07 17:44 25.03185 32.21092 29600 ft 406 kts 330°
2026-05-07 17:44 25.05683 32.19646 29899 ft 407 kts 330°
2026-05-07 17:44 25.08230 32.18172 30190 ft 408 kts 330°
2026-05-07 17:44 25.10721 32.16730 30448 ft 409 kts 330°
2026-05-07 17:45 25.13239 32.15273 30679 ft 410 kts 330°
2026-05-07 17:45 25.15775 32.13803 30904 ft 411 kts 330°
2026-05-07 17:45 25.18307 32.12335 31140 ft 411 kts 330°
2026-05-07 17:45 25.20850 32.10862 31449 ft 410 kts 330°
2026-05-07 17:46 25.23369 32.09403 31768 ft 408 kts 330°
2026-05-07 17:46 25.25872 32.07954 32078 ft 406 kts 330°
2026-05-07 17:46 25.28408 32.06483 32391 ft 405 kts 330°
2026-05-07 17:46 25.30903 32.05035 32711 ft 403 kts 330°
2026-05-07 17:47 25.33389 32.03591 33022 ft 402 kts 330°
2026-05-07 17:47 25.35861 32.02155 33332 ft 401 kts 330°
2026-05-07 17:47 25.38356 32.00705 33650 ft 399 kts 330°
2026-05-07 17:47 25.40813 31.99274 33976 ft 398 kts 330°
2026-05-07 17:48 25.43259 31.97850 34253 ft 397 kts 330°
2026-05-07 17:48 25.45695 31.96430 34498 ft 396 kts 330°
2026-05-07 17:48 25.48138 31.95005 34736 ft 396 kts 330°
2026-05-07 17:48 25.50573 31.93583 34973 ft 395 kts 330°
2026-05-07 17:49 25.53008 31.92161 35192 ft 395 kts 329°
2026-05-07 17:49 25.55465 31.90725 35405 ft 395 kts 329°
2026-05-07 17:49 25.57903 31.89301 35607 ft 395 kts 329°
2026-05-07 17:49 25.60332 31.87883 35811 ft 395 kts 329°
2026-05-07 17:50 25.62734 31.86481 36002 ft 395 kts 329°
2026-05-07 17:50 25.65162 31.85064 36183 ft 395 kts 329°
2026-05-07 17:50 25.67594 31.83642 36373 ft 394 kts 329°
2026-05-07 17:50 25.70018 31.82218 36556 ft 394 kts 329°
2026-05-07 17:51 25.72439 31.80795 36735 ft 394 kts 328°
2026-05-07 17:51 25.74893 31.79357 36901 ft 394 kts 328°
2026-05-07 17:51 25.77286 31.77955 37062 ft 394 kts 328°
2026-05-07 17:51 25.79707 31.76539 37216 ft 394 kts 328°
2026-05-07 17:52 25.82135 31.75118 37384 ft 394 kts 328°
2026-05-07 17:52 25.84556 31.73696 37535 ft 394 kts 328°
2026-05-07 17:52 25.86976 31.72270 37677 ft 394 kts 328°
2026-05-07 17:52 25.89394 31.70844 37849 ft 393 kts 328°
2026-05-07 17:53 25.94230 31.67999 37945 ft 393 kts 328°
2026-05-07 17:53 25.99070 31.65161 37941 ft 393 kts 328°
2026-05-07 17:54 26.03090 31.62789 37932 ft 393 kts 328°
2026-05-07 17:54 26.07936 31.59926 37925 ft 392 kts 328°
2026-05-07 17:55 26.12770 31.57082 37919 ft 393 kts 328°
2026-05-07 17:55 26.17624 31.54211 37927 ft 392 kts 328°
2026-05-07 17:56 26.22554 31.51294 37929 ft 392 kts 328°
2026-05-07 17:56 26.27370 31.48450 37936 ft 391 kts 329°
2026-05-07 17:57 26.31406 31.46058 37947 ft 392 kts 329°
2026-05-07 17:57 26.36990 31.42738 37961 ft 391 kts 329°
2026-05-07 17:58 26.41795 31.39881 37974 ft 391 kts 329°
2026-05-07 17:58 26.46605 31.37036 38001 ft 391 kts 329°
2026-05-07 17:59 26.51369 31.34211 38007 ft 391 kts 329°
2026-05-07 17:59 26.56202 31.31328 38019 ft 390 kts 329°
2026-05-07 18:00 26.60962 31.28489 38030 ft 390 kts 329°
2026-05-07 18:00 26.65745 31.25635 38035 ft 389 kts 329°
2026-05-07 18:01 26.70532 31.22775 38046 ft 389 kts 329°
2026-05-07 18:01 26.75311 31.19913 38057 ft 389 kts 329°
2026-05-07 18:02 26.82483 31.15623 38087 ft 389 kts 329°
2026-05-07 18:03 26.87229 31.12783 38093 ft 389 kts 330°
2026-05-07 18:03 26.92019 31.09915 38098 ft 389 kts 330°
2026-05-07 18:04 26.96774 31.07059 38102 ft 389 kts 330°
2026-05-07 18:04 27.01639 31.04413 38096 ft 391 kts 340°
2026-05-07 18:05 27.07070 31.03683 38091 ft 401 kts 360°
2026-05-07 18:05 27.12652 31.04291 38100 ft 403 kts
2026-05-07 18:06 27.18236 31.04900 38108 ft 402 kts
2026-05-07 18:06 27.23816 31.05519 38109 ft 402 kts
2026-05-07 18:07 27.29418 31.06139 38111 ft 402 kts
2026-05-07 18:07 27.34979 31.06753 38109 ft 401 kts
2026-05-07 18:08 27.40534 31.07366 38109 ft 401 kts
2026-05-07 18:08 27.46088 31.07977 38106 ft 400 kts
2026-05-07 18:09 27.51597 31.08590 38105 ft 400 kts
2026-05-07 18:09 27.57141 31.09206 38102 ft 400 kts
2026-05-07 18:10 27.62681 31.09818 38103 ft 400 kts
2026-05-07 18:10 27.68226 31.10434 38098 ft 400 kts
2026-05-07 18:11 27.73760 31.11047 38100 ft 400 kts
2026-05-07 18:11 27.79487 31.11683 38107 ft 399 kts
2026-05-07 18:12 27.84118 31.12202 38100 ft 399 kts
2026-05-07 18:12 27.89648 31.12822 38103 ft 399 kts
2026-05-07 18:13 27.95175 31.13433 38102 ft 399 kts
2026-05-07 18:13 28.00887 31.14074 38099 ft 399 kts
2026-05-07 18:14 28.06370 31.14689 38097 ft 398 kts
2026-05-07 18:14 28.11927 31.15310 38093 ft 399 kts
2026-05-07 18:15 28.17456 31.15925 38092 ft 399 kts
2026-05-07 18:15 28.23051 31.16556 38089 ft 399 kts
2026-05-07 18:16 28.28583 31.17174 38097 ft 399 kts
2026-05-07 18:16 28.34105 31.17789 37901 ft 398 kts
2026-05-07 18:16 28.36864 31.18099 37633 ft 397 kts
2026-05-07 18:17 28.39608 31.18407 37374 ft 396 kts
2026-05-07 18:17 28.42343 31.18715 37106 ft 395 kts
2026-05-07 18:17 28.45077 31.19024 36846 ft 394 kts
2026-05-07 18:17 28.47798 31.19330 36590 ft 393 kts
2026-05-07 18:18 28.50514 31.19633 36340 ft 392 kts
2026-05-07 18:18 28.53224 31.19933 36090 ft 391 kts
2026-05-07 18:18 28.55929 31.20235 35854 ft 390 kts
2026-05-07 18:18 28.58635 31.20539 35598 ft 390 kts
2026-05-07 18:19 28.61328 31.20843 34981 ft 388 kts
2026-05-07 18:19 28.64018 31.21145 34226 ft 388 kts
2026-05-07 18:19 28.66701 31.21448 33420 ft 387 kts
2026-05-07 18:19 28.69380 31.21752 32592 ft 387 kts
2026-05-07 18:20 28.72057 31.22058 31883 ft 385 kts
2026-05-07 18:20 28.74716 31.22377 31235 ft 383 kts
2026-05-07 18:20 28.77361 31.22702 30588 ft 382 kts
2026-05-07 18:20 28.80004 31.23026 29908 ft 382 kts
2026-05-07 18:21 28.82600 31.23344 29250 ft 380 kts
2026-05-07 18:21 28.85216 31.23665 28629 ft 377 kts
2026-05-07 18:21 28.87846 31.23987 28007 ft 375 kts
2026-05-07 18:21 28.90404 31.24298 27402 ft 373 kts
2026-05-07 18:22 28.92992 31.24608 26802 ft 372 kts
2026-05-07 18:22 28.94726 31.24816 26401 ft 371 kts
2026-05-07 18:22 28.98128 31.25222 25641 ft 370 kts
2026-05-07 18:22 29.00693 31.25528 25072 ft 370 kts
2026-05-07 18:23 29.03285 31.25844 24507 ft 369 kts
2026-05-07 18:23 29.05802 31.26155 23997 ft 368 kts
2026-05-07 18:23 29.08347 31.26468 23444 ft 367 kts
2026-05-07 18:23 29.10880 31.26774 22918 ft 364 kts
2026-05-07 18:24 29.13388 31.27077 22432 ft 361 kts
2026-05-07 18:24 29.15875 31.27380 21944 ft 357 kts
2026-05-07 18:24 29.18336 31.27679 21467 ft 354 kts
2026-05-07 18:24 29.20811 31.27979 20977 ft 352 kts
2026-05-07 18:25 29.23232 31.28274 20497 ft 349 kts
2026-05-07 18:25 29.25648 31.28568 20005 ft 348 kts
2026-05-07 18:25 29.28051 31.28861 19517 ft 346 kts
2026-05-07 18:25 29.30448 31.29153 19022 ft 345 kts
2026-05-07 18:26 29.32835 31.29444 18533 ft 345 kts
2026-05-07 18:26 29.35190 31.29731 18007 ft 344 kts
2026-05-07 18:26 29.37598 31.30027 17499 ft 342 kts
2026-05-07 18:26 29.39987 31.30321 17011 ft 340 kts
2026-05-07 18:27 29.42309 31.30603 16453 ft 340 kts
2026-05-07 18:27 29.44670 31.30886 15880 ft 341 kts
2026-05-07 18:27 29.47066 31.31178 15309 ft 342 kts
2026-05-07 18:27 29.48635 31.31370 14929 ft 343 kts
2026-05-07 18:28 29.51787 31.31754 14166 ft 344 kts
2026-05-07 18:28 29.54208 31.32047 13537 ft 346 kts
2026-05-07 18:28 29.56596 31.32337 12923 ft 345 kts
2026-05-07 18:28 29.58984 31.32628 12319 ft 344 kts
2026-05-07 18:29 29.61355 31.32917 11712 ft 343 kts
2026-05-07 18:29 29.63729 31.33207 11092 ft 342 kts
2026-05-07 18:29 29.66092 31.33496 10547 ft 339 kts
2026-05-07 18:29 29.68407 31.33780 10294 ft 327 kts
2026-05-07 18:30 29.70616 31.34051 10178 ft 312 kts
2026-05-07 18:30 29.72725 31.34310 10066 ft 298 kts
2026-05-07 18:30 29.74752 31.34561 9892 ft 287 kts
2026-05-07 18:30 29.76698 31.34800 9523 ft 284 kts
2026-05-07 18:31 29.78682 31.35041 9106 ft 282 kts
2026-05-07 18:31 29.80598 31.35274 8712 ft 279 kts
2026-05-07 18:31 29.82522 31.35507 8307 ft 277 kts
2026-05-07 18:31 29.84434 31.35739 7889 ft 275 kts
2026-05-07 18:32 29.86333 31.35971 7494 ft 272 kts
2026-05-07 18:32 29.88214 31.36201 6992 ft 274 kts
2026-05-07 18:32 29.90140 31.36436 6285 ft 282 kts
2026-05-07 18:32 29.92122 31.36677 5543 ft 289 kts
2026-05-07 18:33 29.93447 31.36691 5343 ft 284 kts 353°
2026-05-07 18:33 29.95314 31.36023 5278 ft 268 kts 333°
2026-05-07 18:33 29.96724 31.34720 5184 ft 256 kts 313°
2026-05-07 18:33 29.97615 31.32977 4947 ft 252 kts 293°
2026-05-07 18:34 29.97937 31.31003 4644 ft 251 kts 278°
2026-05-07 18:34 29.98072 31.29022 4395 ft 244 kts 278°
2026-05-07 18:34 29.98209 31.27083 4010 ft 243 kts 279°
2026-05-07 18:34 29.98443 31.25171 3746 ft 234 kts 296°
2026-05-07 18:35 29.99396 31.23852 3684 ft 205 kts 338°
2026-05-07 18:35 30.00688 31.23716 3644 ft 181 kts 23°
2026-05-07 18:35 30.01494 31.24678 3611 ft 168 kts 71°
2026-05-07 18:35 30.01629 31.25998 3469 ft 160 kts 76°
2026-05-07 18:36 30.01826 31.27210 3306 ft 146 kts 74°
2026-05-07 18:36 30.02011 31.28322 3155 ft 136 kts 74°
2026-05-07 18:36 30.02189 31.29377 3004 ft 133 kts 74°
2026-05-07 18:36 30.02365 31.30419 2855 ft 132 kts 74°
2026-05-07 18:37 30.02566 31.31443 2706 ft 130 kts 68°
2026-05-07 18:37 30.02935 31.32388 2546 ft 129 kts 58°
2026-05-07 18:37 30.03412 31.33262 2389 ft 130 kts 53°
2026-05-07 18:37 30.03947 31.34099 2223 ft 129 kts 50°
2026-05-07 18:38 30.04494 31.34890 2071 ft 125 kts 48°
2026-05-07 18:38 30.05045 31.35654 1900 ft 123 kts 48°
2026-05-07 18:38 30.05599 31.36409 1735 ft 123 kts 47°
2026-05-07 18:38 30.06158 31.37162 1555 ft 123 kts 47°
2026-05-07 18:39 30.06719 31.37912 1402 ft 123 kts 48°
2026-05-07 18:39 30.07278 31.38659 1228 ft 122 kts 46°
2026-05-07 18:39 30.07836 31.39401 1071 ft 123 kts 46°
2026-05-07 18:39 30.08397 31.40150 903 ft 122 kts 48°
2026-05-07 18:40 30.08952 31.40888 738 ft 122 kts 48°
2026-05-07 18:40 30.09506 31.41627 566 ft 122 kts 48°
2026-05-07 18:40 30.10057 31.42362 409 ft 121 kts 48°
2026-05-07 18:40 30.10598 31.43072 375 ft 105 kts 49°
2026-05-07 18:41 30.10899 31.43462 374 ft 23 kts 41°
2026-05-07 18:41 30.10998 31.43522 375 ft 12 kts 24°
2026-05-07 18:41 30.11079 31.43565 375 ft 14 kts 24°
2026-05-07 18:41 30.11138 31.43595 375 ft 5 kts 24°
2026-05-07 18:42 30.11163 31.43603 375 ft 1 kts
2026-05-07 18:42 30.11176 31.43600 375 ft 2 kts 341°
2026-05-07 18:42 30.11185 31.43593 375 ft 1 kts 327°
2026-05-07 18:42 30.11213 31.43573 375 ft 5 kts 328°
2026-05-07 18:43 30.11248 31.43535 375 ft 10 kts 298°
2026-05-07 18:43 30.11243 31.43445 375 ft 12 kts 277°
2026-05-07 18:43 30.11289 31.43380 375 ft 10 kts 321°
2026-05-07 18:43 30.11344 31.43327 375 ft 10 kts 320°
2026-05-07 18:44 30.11400 31.43272 375 ft 12 kts 318°
2026-05-07 18:44 30.11476 31.43196 375 ft 17 kts 319°
2026-05-07 18:44 30.11573 31.43100 375 ft 20 kts 320°
2026-05-07 18:44 30.11682 31.42991 375 ft 22 kts 320°
2026-05-07 18:45 30.11792 31.42883 375 ft 21 kts 320°
2026-05-07 18:45 30.11911 31.42766 375 ft 22 kts 320°
2026-05-07 18:45 30.11980 31.42696 375 ft 4 kts 319°
2026-05-07 18:45 30.12007 31.42669 375 ft 9 kts 319°
2026-05-07 18:46 30.12054 31.42622 375 ft 10 kts 319°
2026-05-07 18:46 30.12116 31.42560 375 ft 9 kts 319°
2026-05-07 18:46 30.12149 31.42527 375 ft 1 kts 319°
2026-05-07 18:46 30.12154 31.42522 375 ft 1 kts 319°
2026-05-07 18:47 30.12173 31.42503 375 ft 8 kts 316°
2026-05-07 18:47 30.12200 31.42453 375 ft 8 kts 289°
2026-05-07 18:47 30.12189 31.42391 375 ft 9 kts 238°
2026-05-07 18:47 30.12153 31.42338 375 ft 8 kts 229°
2026-05-07 18:48 30.12113 31.42285 375 ft 10 kts 229°
2026-05-07 18:48 30.12039 31.42185 375 ft 21 kts 227°
2026-05-07 18:48 30.11936 31.42048 375 ft 25 kts 229°
2026-05-07 18:48 30.11843 31.41924 375 ft 19 kts 229°
2026-05-07 18:49 30.11746 31.41794 375 ft 21 kts 229°
2026-05-07 18:49 30.11655 31.41667 375 ft 20 kts 230°
2026-05-07 18:49 30.11572 31.41554 375 ft 20 kts 229°
2026-05-07 18:49 30.11472 31.41424 375 ft 24 kts 228°
2026-05-07 18:50 30.11373 31.41294 375 ft 16 kts 228°
2026-05-07 18:50 30.11299 31.41196 375 ft 14 kts 230°
2026-05-07 18:50 30.11232 31.41107 375 ft 14 kts 229°
2026-05-07 18:50 30.11169 31.41023 375 ft 13 kts 229°
2026-05-07 18:51 30.11111 31.40944 375 ft 12 kts 229°
2026-05-07 18:51 30.11057 31.40872 375 ft 11 kts 229°
2026-05-07 18:51 30.11006 31.40808 375 ft 10 kts 227°
2026-05-07 18:51 30.10961 31.40750 375 ft 9 kts 227°
2026-05-07 18:52 30.10920 31.40694 375 ft 10 kts 229°
2026-05-07 18:52 30.10866 31.40622 374 ft 14 kts 229°
2026-05-07 18:52 30.10800 31.40535 374 ft 15 kts 229°
2026-05-07 18:52 30.10733 31.40445 374 ft 13 kts 229°
2026-05-07 18:53 30.10685 31.40357 374 ft 13 kts 264°
2026-05-07 18:53 30.10705 31.40263 374 ft 11 kts 259°
2026-05-07 18:53 30.10657 31.40185 374 ft 13 kts 230°
2026-05-07 18:53 30.10592 31.40099 374 ft 15 kts 229°
2026-05-07 18:54 30.10523 31.40007 374 ft 15 kts 228°
2026-05-07 18:54 30.10493 31.39904 374 ft 14 kts 284°
2026-05-07 18:54 30.10573 31.39844 374 ft 16 kts 346°
2026-05-07 18:54 30.10689 31.39810 374 ft 18 kts 344°
2026-05-07 18:55 30.10806 31.39774 374 ft 13 kts 345°
2026-05-07 18:55 30.10882 31.39733 374 ft 10 kts 291°
2026-05-07 18:55 30.10871 31.39660 374 ft 6 kts 255°
2026-05-07 18:55 30.10870 31.39657 374 ft 0 kts 255°